Regional Weather Roundup
Issued by NWS

Home | Current Version | Previous Version | Text Only | Print | Product List | Glossary On
Versions: 1 2 3 4 5 6 7 8 9 10 11 12 13 14 15 16 17 18 19 20 21 22 23 24 25 26 27 28 29 30 31 32 33 34 35 36 37 38 39 40 41 42 43 44 45 46 47 48 49 50
000
ASUS46 KLOX 251012
RWRCA

SOUTHERN CALIFORNIA WEATHER ROUNDUP
NATIONAL WEATHER SERVICE OXNARD CALIFORNIA
200 AM PST SUN JAN 25 2015

NOTE: "FAIR" INDICATES FEW OR NO CLOUDS BELOW 12,000 FEET WITH NO
SIGNIFICANT WEATHER AND/OR OBSTRUCTIONS TO VISIBILITY.

  -  STATIONS PRECEEDED BY AN ASTERISK (*) ARE NOT NWS OR FAA
     STATIONS AND ARE NOT SUBJECT TO NWS AND FAA QUALITY CONTROL.

CAZ041-042-087-251100-
LA AND ORANGE COUNTY COASTAL AREAS


CITY           SKY/WX    TMP DP  RH WIND       PRES   REMARKS
L.A. DOWNTOWN  CLEAR     54  36  50 CALM      30.03S
L.A. AIRPORT   CLEAR     60  32  34 CALM      30.03S
LONG BEACH     CLEAR     70  21  15 NE9       30.02S

CITY           SKY/WX    TMP DP  RH WIND       PRES   REMARKS
AVALON           N/A     55 N/A N/A S3          N/A
FULLERTON      CLEAR     69  18  14 E7        30.01S
HAWTHORNE      CLEAR     56  35  45 CALM      30.03S
*LOS ALAMITOS  FAIR      73  21  14 E15       30.01S
*REDONDO BEACH   N/A     53  30  40 CALM      30.03F
SANTA ANA      CLEAR     60  28  29 CALM      30.02R
STA MONICA APT CLEAR     57  28  33 N5        30.03F
*STA MON PIER    N/A     62  30  30 NW2       30.03R
*UCLA            N/A     63  23  22 N7        30.01S

$$

CAZ547-548-048-251100-
LA COUNTY VALLEYS AND INLAND EMPIRE


CITY           SKY/WX    TMP DP  RH WIND       PRES   REMARKS
BURBANK        CLEAR     55  24  30 N6        30.04S
VAN NUYS       CLEAR     54  27  35 CALM      30.04S

CITY           SKY/WX    TMP DP  RH WIND       PRES   REMARKS
CORONA AIRPORT SUNNY     56  26  31 CALM      30.08R
*CHATSWORTH      N/A     72  21  14 N18       30.02S
CHINO          CLEAR     59  24  26 SE12      30.07S
MARCH AFB      CLEAR     50  24  36 NW8       30.08F
*NORTHRIDGE      N/A     68  10  10 N3G10       N/A
ONTARIO        CLEAR     73  14  10 NE23G37   30.04S
*PASADENA        N/A     55  30  38 CALM        N/A
RIVERSIDE      CLEAR     54  25  32 E3        30.08S
SAN BERNARDINO NOT AVBL
*WHITEMAN AP   NOT AVBL
*WOODLAND HILL   N/A     57  21  24 S2          N/A

$$

CAZ054-055-251100-
LA AND SAN BERNARDINO COUNTY MOUNTAINS


CITY           SKY/WX    TMP DP  RH WIND       PRES   REMARKS
*BIG BEAR AIRP SUNNY     36  14  41 E10       30.30F WCI  28
MT WILSON NWS    N/A     50   0  12 N1          N/A
SANDBERG       CLEAR     46  16  30 NE12      30.24S

$$

CAZ028-029-059-060-099-251100-
ANTELOPE VALLEY AND SURROUNDING AREAS


CITY           SKY/WX    TMP DP  RH WIND       PRES   REMARKS
LANCASTER      CLEAR     32  25  75 W3        30.23R
PALMDALE       CLEAR     37  26  64 CALM      30.23R

CITY           SKY/WX    TMP DP  RH WIND       PRES   REMARKS
29 PALMS       CLEAR     49  19  30 W8        30.25S
BARSTOW/DAGGET CLEAR     44  22  41 W9        30.21S
BISHOP         CLEAR     34  10  37 NW8       30.38S WCI  27
CHINA LAKE     CLEAR     43  20  39 VRB5      30.22R
EDWARDS AFB    CLEAR     38  26  61 N6        30.20S WCI  34
MOJAVE         FAIR      41  19  42 NW9       30.23S
NEEDLES        CLEAR     63  25  23 N17       30.14S
VICTORVILLE    CLEAR     37  23  56 CALM      30.22F

$$

CAZ039-040-251100-
VENTURA AND SANTA BARBARA COUNTY COAST


CITY           SKY/WX    TMP DP  RH WIND       PRES   REMARKS
CAMARILLO      CLEAR     67  21  17 E13       30.03S
NWS OXNARD       N/A     67  22  18 CALM      30.02F
OXNARD AIRPORT CLEAR     56  48  74 CALM      30.04S
*POINT MUGU    CLEAR     70  25  18 E9        30.04S
SBA APT/GOLETA CLEAR     43  37  79 NW3       30.04F
*SANTA BARBARA   N/A     51  35  55 CALM      30.12S
*VENTURA         N/A     68  28  22 E3        30.08S

$$

CAZ044-045-251100-
VENTURA COUNTY VALLEYS


CITY           SKY/WX    TMP DP  RH WIND       PRES   REMARKS
*SIMI VALLEY     N/A     68  22  17 NE10      30.02R
*OJAI            N/A     55  28  34 SW1       30.00R
*FILLMORE        N/A     73  28  19 NE7       29.94F

$$

CAZ053-251100-
VENTURA COUNTY MOUNTAINS


CITY           SKY/WX    TMP DP  RH WIND       PRES   REMARKS
*LOCKWOOD VLY    N/A     43  10  26 MISG        N/A
*ROSE VALLEY     N/A     54  18  24 MISG        N/A

$$

CAZ034-035-036-251100-
CENTRAL COAST AND SANTA YNEZ VALLEY


CITY           SKY/WX    TMP DP  RH WIND       PRES   REMARKS
SAN LUIS OBISP CLEAR     43  36  76 CALM      30.07F
SANTA MARIA    CLEAR     46  31  55 SE3       30.07F

CITY           SKY/WX    TMP DP  RH WIND       PRES   REMARKS
*CAL POLY SLO    N/A     63  30  29 N17         N/A
*LOMPOC        CLEAR     45  32  61 E8        30.07S
*PISMO BEACH     N/A     50  36  58 NE5       30.07S
*SANTA YNEZ    FAIR      39  32  75 NE5       30.09S

$$

CAZ037-038-051-251100-
SAN LUIS OBISPO COUNTY INTERIOR AND CUYAMA VALLEY


CITY           SKY/WX    TMP DP  RH WIND       PRES   REMARKS
*CUYAMA          N/A     52  20  28 CALM      30.13F
PASO ROBLES    CLEAR     37  32  82 CALM      30.15S

$$

CAZ032-033-061-251100-
SOUTHERN DESERTS


CITY           SKY/WX    TMP DP  RH WIND       PRES   REMARKS
BLYTHE         CLEAR     54  22  28 CALM      30.09S
IMPERIAL       CLEAR     45  21  38 W6        30.06S
PALM SPRINGS   CLEAR     65  18  16 SW7       30.11F
THERMAL        CLEAR     58  21  24 N6        30.06F

$$

ELSEWHERE ACROSS THE WESTERN UNITED STATES AND MEXICO


CITY           SKY/WX    TMP DP  RH WIND       PRES   REMARKS
DENVER, CO     PTCLDY    28  25  88 S13       30.13S WCI  17
GRAND CANYON,  CLEAR     20  15  81 CALM      30.33R
HONOLULU, HI   PTCLDY    70  63  78 N6        30.06S
KAHULUI, MAUI  LGT RAIN  68  66  94 NE8       30.07F
LAKE TAHOE, CA PTCLDY    38  23  55 VRB3      30.39S
LAS VEGAS, NV  CLEAR     50  22  33 S5        30.22R
MAMMOTH LAKES, FAIR      28  16  59 CALM      30.46S
MEXICO CITY, M PTCLDY    50  43  76 CALM      30.27F
PHOENIX, AZ    CLEAR     56  20  24 NE3       30.07F
PORTLAND, OR   FOG       47  47 100 NW3       30.24S VSB 1/4
RENO, NV       PTCLDY    31  19  61 CALM      30.45R
SALT LAKE CITY CLOUDY    34  30  85 NW3       30.47R
SAN DIEGO, CA  PTCLDY    56  36  47 CALM      30.02R
SAN FRANCISCO, CLEAR     54  50  86 N8        30.13R
SAN JOSE, CA   CLEAR     47  36  65 CALM      30.13F
SEATTLE, WA    FOG       54  52  94 SW5       30.23R VSB 1/2
TIJUANA, MEX   CLEAR     66  14  13 CALM      30.03S

$$

STATION/POSITION TIME  TEMP    WIND        PRES    VSBY  WAVE
                       AIR SEA DIR/SP/G                  HT/PER
                 (UTC) (F)     (DEG/KT/KT) (MB)    (MI)  (FT/S)
POINT ARGUELLO B NOT AVBL
WEST SANTA BARBA 1000   61 60  340/  4/  6 1016.7F        10/16
POINT CONCEPTION NOT AVBL
EAST SANTA BARBA NOT AVBL
SANTA MONICA BAY 1000   63 62   10/  4/  6 1017.2R         5/16



USA.gov is the U.S. government's official web portal to all federal, state and local government web resources and services.